Hourly Weather Roundup
Issued by NWS Central Illinois

Home | Current Version | Previous Version | Text Only | Print | Product List | Glossary On
Versions: 1 2 3 4 5 6 7 8 9 10 11 12 13 14 15 16 17 18 19 20 21 22 23 24 25 26 27 28 29 30 31 32 33 34 35 36 37 38 39 40 41 42 43 44 45 46 47 48 49 50
000
NZUS43 KILX 180810
HWRILX

AREA WEATHER ROUNDUP
NATIONAL WEATHER SERVICE, LINCOLN IL
300 AM CDT THU SEP 18 2014


CITY           SKY/WX    TMP DP  RH WIND       PRES   REMARKS
BLOOMINGTON    CLEAR     51  49  93 CALM      30.05S
CHAMPAIGN      PTCLDY    51  50  96 N3        30.04S FOG
DECATUR        CLEAR     50  48  93 NE3       30.03F FOG
FLORA          CLEAR     59  55  85 CALM      30.02S
GALESBURG      CLEAR     46  45  96 CALM      30.03F FOG
JACKSONVILLE   FOG       49  48  97 NE5       30.02F VSB 1/2
LACON          FOG       47  46  97 CALM      30.04S VSB 1/2
LAWRENCEVILLE  MOCLDY    55  53  93 E6        30.02S FOG
LITCHFIELD     CLOUDY    58  54  85 NE6       30.01F
$$


CITY           SKY/WX    TMP DP  RH WIND       PRES   REMARKS
LINCOLN        CLEAR     52  51  95 CALM      30.02S
MACOMB         FOG       43  43 100 CALM      30.05S VSB 1/2
MATTOON        CLEAR     51  49  92 NE3       30.02S FOG
MT CARMEL AP   CLOUDY    61  55  82 E3        30.01S
OLNEY-NOBLE AP CLOUDY    57  54  88 CALM      30.02R
PARIS          CLEAR     49  49  99 CALM      30.04S FOG
PEORIA         CLEAR     52  49  89 CALM      30.04S FOG
PONTIAC        CLEAR     52  50  93 E3        30.04S
RANTOUL        CLEAR     54  50  87 NW5       30.05S
ROBINSON       FOG       53  52  99 CALM      30.03S VSB 1/2
SPRINGFIELD    CLEAR     51  48  89 NE3       30.02F
TAYLORVILLE    FOG       45  45 100 N3        30.02S VSB 1/2
$$

...REGIONAL REPORTS...


CITY           SKY/WX    TMP DP  RH WIND       PRES   REMARKS
CHICAGO O`HARE CLEAR     55  49  80 CALM      30.05S
KANKAKEE       CLEAR     47  47  99 CALM      30.06S FOG
MOLINE         PTCLDY    48  46  93 CALM      30.04S
MOUNT VERNON   CLOUDY    61  54  77 NE7       30.01S
PITTSFIELD     FOG       53  52  95 NE3       30.01F VSB 1/4
QUINCY         FOG       49  48  97 NE3       30.00F VSB 1/2
ROCKFORD       CLEAR     48  45  89 CALM      30.08S
$$


CITY           SKY/WX    TMP DP  RH WIND       PRES   REMARKS
BURLINGTON     CLEAR     49  48  97 N3        30.03S FOG
CEDAR RAPIDS   CLEAR     50  50 100 SE3       30.03S FOG
DES MOINES     PTCLDY    58  55  90 E3        30.01F
KIRKSVILLE     FOG       56  55  97 E5        30.01S VSB 1/4
OTTUMWA        CLEAR     51  49  92 E3        30.02S
ST LOUIS       CLOUDY    62  56  80 E8        29.99F
$$


CITY           SKY/WX    TMP DP  RH WIND       PRES   REMARKS
TERRE HAUTE    PTCLDY    50  48  93 CALM      30.03S FOG
EVANSVILLE     CLOUDY    62  53  72 CALM      30.01R
INDIANAPOLIS   CLEAR     53  49  86 CALM      30.03F
LAFAYETTE      PTCLDY    47  47 100 CALM      30.04S
MADISON        CLEAR     47  45  93 N5        30.07R FOG
MILWAUKEE      MOCLDY    53  49  86 N12       30.08R
$$




USA.gov is the U.S. government's official web portal to all federal, state and local government web resources and services.